Location: Newark
(50.4348°N, 30.5552°E)
Time: 01:13:27
(UTC+00:00)

Tiros 1 despin weight - Pass Details

Date: 30 January 2020
Orbit: 594 x 642 km, 48.2° (Epoch: 27 February)

Event Time Altitude Azimuth Distance (km) Brightness Sun altitude
Rises 07:42:13 0° 224° (SW) 2,838 ? 14.4°
Reaches altitude 10° 07:44:40 10° 214° (SW) 1,945 ? 14.6°
Maximum altitude 07:48:37 31° 152° (SSE) 1,067 ? 14.9°
Drops below altitude 10° 07:52:38 10° 90° (E) 1,978 ? 15.3°
Sets 07:55:08 0° 80° (E) 2,895 ? 15.5°
